KSF1-D (48950 NORAD) Tracking and Keplerian Element Data

This shows tracking and keplerian element data for the satellite.

Feedback or suggestion? Click here.




ElementValue
Catalog48950
NameKSF1-D
Epoch Orbit1396
Epoch Day269.12022144
Epoch Year2021
RAAN36.7521
Inclination97.5185
Eccentricity0.0015202
Argument of Perigee301.003
Mean Anonmoly231.0097
Mean Motion15.1429445
Decay Rate2.312E-05
L11 48950U 21059BZ 21269.12022144 .00002312 00000-0 12964-3 0 9992
L22 48950 97.5185 36.7521 0015202 301.0030 231.0097 15.14294450 13960

Live tracking and technical data element details for KSF1-D (NORAD 48950). KSF1-D can be tracked NOW for your location showing map with azimuth and elevation plus other details from your city location.

Track the satellite on the map from your city or location and see movement details for azimuth, elevation, latitude, longitude, range, height, and movement on the map or in text.







IsCatalogInMostPopularTable: catalog: 48950, numindb: 17
Update: records affected: 1



GetName: 48950 KSF1-D

Hit Count: updated at: Sun, 26 Sep 2021 16:48:46 GMT